Date String (YYYY-MM-DD hh:mm:ss) UTC,Instrument flags,absolute air pressure of the measurement (hPa),sample flow rate (lpm),inlet stack bypass flow (lpm),air temperature of the measurement (°C),ambient temperature measured by the external sensor (°C),aerosol sample conditioner tube jacket temperature (°C),OPC LED temperature (°C),internal box temperature (°C),relative humidity of the measurement (%),span deviation,mass concentration of particles derived from Lorenz-Mie calculation of OPC scattering (μg/m³),mass concentration of particles derived from Lorenz-Mie calculation of OPC scattering (μg/m³),mass concentration of particles derived from Lorenz-Mie calculation of OPC scattering (μg/m³)
DateTimeUTC,F1_M11,P_M11,Q1_M11,Q2_M11,T1_M11,T2_M11,T3_M11,T4_M11,T5_M11,U1_M11,ZSPAN_M11,X0_M11,X2_M11,X1_M11
2024-03-24 13:00:00,SystemResetWarning,0809.9,5.01,000.00,021.2,020.5,000.0,029.9,023.1,22.3,0001.1,0043.12,0018.89,0016.03
2024-03-24 13:01:00,SystemResetWarning,0810.0,4.99,000.00,021.2,020.5,000.0,029.9,023.1,22.3,0000.8,0045.73,0018.97,0016.12
2024-03-24 13:02:00,SystemResetWarning,0809.9,4.99,000.00,021.2,020.5,000.0,029.9,023.1,22.3,0000.4,0048.85,0019.09,0016.18
2024-03-24 13:03:00,SystemResetWarning,0809.8,5.01,000.00,021.2,020.5,000.0,029.9,023.0,22.4,0000.3,0050.30,0019.19,0016.23
2024-03-24 13:04:00,SystemResetWarning,0809.9,5.01,000.00,021.2,020.5,000.0,029.9,023.0,22.9,0000.5,0051.16,0019.25,0016.31
2024-03-24 13:05:00,SystemResetWarning,0810.0,5.00,000.00,021.2,020.5,000.0,029.9,023.0,24.1,0000.5,0050.23,0019.32,0016.38
2024-03-24 13:06:00,SystemResetWarning,0810.0,5.00,000.00,021.2,020.5,000.0,029.9,023.0,23.2,0000.5,0050.57,0019.37,0016.44
2024-03-24 13:07:00,SystemResetWarning,0810.0,5.00,000.00,021.2,020.5,000.0,029.8,023.0,22.9,0000.9,0050.46,0019.30,0016.47
2024-03-24 13:08:00,SystemResetWarning,0809.8,5.00,000.00,021.2,020.4,000.0,029.8,023.0,22.8,0001.1,0050.88,0019.27,0016.46
2024-03-24 13:09:00,SystemResetWarning,0809.8,5.00,000.00,021.2,020.4,000.0,029.8,023.0,22.9,0001.2,0052.47,0019.18,0016.42
2024-03-24 13:10:00,SystemResetWarning,0809.8,5.00,000.00,021.2,020.4,000.0,029.8,023.0,23.0,0001.4,0051.62,0019.14,0016.45
2024-03-24 13:11:00,SystemResetWarning,0809.9,5.00,000.00,021.1,020.4,000.0,029.8,023.0,23.0,0001.2,0048.47,0019.04,0016.42
2024-03-24 13:12:00,SystemResetWarning,0810.0,5.00,000.00,021.1,020.4,000.0,029.8,023.0,23.0,0001.2,0045.16,0018.99,0016.35
2024-03-24 13:13:00,SystemResetWarning,0809.9,5.00,000.00,021.1,020.4,000.0,029.8,023.0,22.9,0001.4,0041.55,0018.93,0016.29
2024-03-24 13:14:00,SystemResetWarning,0809.7,4.99,000.00,021.1,020.4,000.0,029.8,023.0,23.1,0001.4,0041.36,0018.81,0016.23
2024-03-24 13:15:00,SystemResetWarning,0809.7,5.01,000.00,021.1,020.4,000.0,029.8,023.0,23.3,0001.3,0041.79,0018.79,0016.21
2024-03-24 13:16:00,SystemResetWarning,0809.8,5.01,000.00,021.1,020.3,000.0,029.8,023.0,23.3,0001.3,0041.77,0018.73,0016.20
2024-03-24 13:17:00,SystemResetWarning,0809.7,5.01,000.00,021.1,020.3,000.0,029.8,022.9,23.3,0001.4,0041.53,0018.70,0016.20
2024-03-24 13:18:00,SystemResetWarning,0809.7,5.00,000.00,021.1,020.3,000.0,029.8,022.9,23.3,0001.1,0042.42,0018.73,0016.19
2024-03-24 13:19:00,SystemResetWarning,0809.6,5.00,000.00,021.1,020.3,000.0,029.8,022.9,23.3,0001.0,0042.94,0018.78,0016.20
2024-03-24 13:20:00,SystemResetWarning,0809.6,5.00,000.00,021.1,020.3,000.0,029.8,022.9,23.3,0001.3,0042.27,0018.88,0016.23
2024-03-24 13:21:00,SystemResetWarning,0809.6,5.00,000.00,021.1,020.3,000.0,029.8,022.9,23.3,0001.1,0045.71,0018.94,0016.21
2024-03-24 13:22:00,SystemResetWarning,0809.5,5.00,000.00,021.1,020.3,000.0,029.7,022.9,23.3,0001.2,0046.24,0018.93,0016.19
2024-03-24 13:23:00,SystemResetWarning,0809.5,5.01,000.00,021.0,020.3,000.0,029.7,022.9,23.5,0001.1,0046.44,0018.94,0016.21
2024-03-24 13:24:00,SystemResetWarning,0809.5,5.01,000.00,021.0,020.3,000.0,029.7,022.9,23.6,0001.4,0046.77,0018.98,0016.26
2024-03-24 13:25:00,SystemResetWarning,0809.6,5.01,000.00,021.0,020.3,000.0,029.7,022.9,23.7,0001.6,0045.64,0019.05,0016.30
2024-03-24 13:26:00,SystemResetWarning,0809.6,5.00,000.00,021.0,020.3,000.0,029.7,022.9,23.9,0001.5,0045.36,0019.04,0016.28
2024-03-24 13:27:00,SystemResetWarning,0809.8,5.00,000.00,021.0,020.3,000.0,029.7,022.9,24.1,0001.6,0046.08,0019.02,0016.24
2024-03-24 13:28:00,SystemResetWarning,0809.8,5.00,000.00,021.0,020.3,000.0,029.7,022.9,24.6,0001.7,0045.53,0019.13,0016.24
2024-03-24 13:29:00,SystemResetWarning,0809.8,5.01,000.00,021.0,020.3,000.0,029.7,022.8,24.8,0001.7,0045.37,0019.20,0016.27
2024-03-24 13:30:00,SystemResetWarning,0809.8,5.00,000.00,021.0,020.3,000.0,029.7,022.8,24.9,0001.6,0043.69,0019.26,0016.31
2024-03-24 13:31:00,SystemResetWarning,0809.8,5.00,000.00,021.0,020.2,000.0,029.7,022.8,25.0,0001.4,0042.70,0019.24,0016.31
2024-03-24 13:32:00,SystemResetWarning,0809.8,4.99,000.00,021.0,020.2,000.0,029.7,022.8,25.4,0001.5,0039.89,0019.20,0016.33
2024-03-24 13:33:00,SystemResetWarning,0809.8,4.99,000.00,021.0,020.2,000.0,029.7,022.8,26.2,0001.3,0042.09,0019.25,0016.31
2024-03-24 13:34:00,SystemResetWarning,0809.8,4.99,000.00,021.0,020.2,000.0,029.7,022.8,26.0,0001.3,0042.41,0019.22,0016.28
2024-03-24 13:35:00,SystemResetWarning,0809.9,4.99,000.00,021.0,020.2,000.0,029.7,022.8,25.9,0001.2,0042.09,0019.21,0016.27
2024-03-24 13:36:00,SystemResetWarning,0809.8,5.01,000.00,021.0,020.1,000.0,029.6,022.8,25.9,0000.9,0042.89,0019.31,0016.31
2024-03-24 13:37:00,SystemResetWarning,0809.7,5.01,000.00,021.0,020.1,000.0,029.6,022.8,25.9,0001.0,0042.33,0019.34,0016.39
2024-03-24 13:38:00,SystemResetWarning,0809.7,5.00,000.00,021.0,020.1,000.0,029.6,022.8,25.9,0000.5,0041.88,0019.47,0016.50
2024-03-24 13:39:00,SystemResetWarning,0809.8,5.00,000.00,020.9,020.1,000.0,029.6,022.8,25.9,0000.5,0042.73,0019.47,0016.56
2024-03-24 13:40:00,SystemResetWarning,0809.8,5.00,000.00,020.9,020.1,000.0,029.6,022.8,25.7,0000.4,0043.24,0019.44,0016.60
2024-03-24 13:41:00,SystemResetWarning,0809.8,5.00,000.00,020.9,020.1,000.0,029.6,022.8,25.5,0000.3,0045.03,0019.46,0016.60
2024-03-24 13:42:00,SystemResetWarning,0809.8,4.99,000.00,020.9,020.1,000.0,029.6,022.7,25.2,0000.1,0045.33,0019.44,0016.60
2024-03-24 13:43:00,SystemResetWarning,0809.7,4.99,000.00,020.9,020.0,000.0,029.6,022.7,25.1,-000.0,0045.07,0019.49,0016.62
2024-03-24 13:44:00,SystemResetWarning,0809.7,4.99,000.00,020.9,020.0,000.0,029.6,022.7,24.9,0000.0,0042.73,0019.55,0016.69
2024-03-24 13:45:00,SystemResetWarning,0809.7,5.02,000.00,020.9,020.0,000.0,029.6,022.7,24.8,-000.0,0042.75,0019.61,0016.75
2024-03-24 13:46:00,SystemResetWarning,0809.7,5.01,000.00,020.9,020.0,000.0,029.6,022.7,24.8,-000.4,0044.25,0019.78,0016.82
2024-03-24 13:47:00,SystemResetWarning,0809.7,5.00,000.00,020.9,020.1,000.0,029.6,022.7,24.8,-000.4,0044.30,0019.73,0016.82
2024-03-24 13:48:00,SystemResetWarning,0809.7,5.00,000.00,020.9,020.1,000.0,029.6,022.7,24.9,-000.2,0046.92,0019.71,0016.78
2024-03-24 13:49:00,SystemResetWarning,0809.7,4.99,000.00,020.9,020.1,000.0,029.5,022.7,24.9,-000.0,0047.13,0019.56,0016.71
2024-03-24 13:50:00,SystemResetWarning,0809.7,5.00,000.00,020.9,020.1,000.0,029.5,022.7,24.9,-000.4,0047.63,0019.43,0016.69
2024-03-24 13:51:00,SystemResetWarning,0809.7,4.99,000.00,020.9,020.1,000.0,029.5,022.7,24.9,-000.3,0045.93,0019.48,0016.68
2024-03-24 13:52:00,SystemResetWarning,0809.8,5.01,000.00,020.9,020.1,000.0,029.5,022.7,24.9,0000.2,0044.02,0019.40,0016.69
2024-03-24 13:53:00,SystemResetWarning,0809.7,5.01,000.00,020.9,020.1,000.0,029.5,022.7,24.8,0000.4,0044.77,0019.32,0016.68
2024-03-24 13:54:00,SystemResetWarning,0809.7,5.01,000.00,020.9,020.0,000.0,029.5,022.7,24.8,0000.6,0047.15,0019.38,0016.66
2024-03-24 13:55:00,SystemResetWarning,0809.7,4.99,000.00,020.8,020.0,000.0,029.5,022.7,24.8,0000.7,0050.63,0019.35,0016.62
2024-03-24 13:56:00,SystemResetWarning,0809.7,4.99,000.00,020.8,020.0,000.0,029.5,022.7,24.7,0000.9,0053.16,0019.36,0016.61
2024-03-24 13:57:00,SystemResetWarning,0809.7,4.99,000.00,020.8,020.0,000.0,029.5,022.6,24.7,0001.3,0053.36,0019.20,0016.58
2024-03-24 13:58:00,SystemResetWarning,0809.6,5.00,000.00,020.8,019.9,000.0,029.5,022.6,24.6,0001.6,0052.58,0019.13,0016.59
2024-03-24 13:59:00,SystemResetWarning,0809.6,5.01,000.00,020.8,019.9,000.0,029.5,022.6,24.5,0001.5,0050.13,0019.11,0016.62
